Flag for China Weather past 2 weeks in Kunming, Yunnan, China

Now
55 °F

Clear.


Feels Like: 52 °F
Forecast: 55 / 76 °F
Wind: 15 mph from Southwest

Location: Kunming Airport

Current Time: Mar 31, 2015 at 2:30:13 AM

Latest Report: Mar 31, 2015 at 2:00 AM


Visibility: 10 mi

Pressure: 30.04 "Hg

Humidity: 72%

Dew point: 46 °F

Location of KunmingLocation

Historic Weather in Kunming — Graph

°F

Kunming temperature yesterday

Maximum temperature yesterday: 75 °F (at 4:00 PM)
Minimum temperature yesterday: 50 °F (at 5:00 AM)
Average temperature yesterday: 62 °F

Past Weeks' High & Low Weather Summary

 TemperatureHumidityPressure
High77 °F (Mar 16, 5:00 PM)100% (Mar 22, 6:00 AM)30.42 "Hg (Mar 22, 6:00 AM)
Low45 °F (Mar 21, 7:00 AM)11% (Mar 20, 3:00 PM)29.92 "Hg (Mar 17, 4:00 PM)
Average60 °F58%30.18 "Hg
* Reported Mar 16 1:00 AM — Mar 31 1:00 AM, Kunming, Weather by CustomWeather, © 2015

Note: Actual official high and low records may vary slightly from our data, if they occured in-between our weather recording intervals... More about our weather records

Advertising

Kunming weather history for previous 24 hours

 ConditionsComfort  
Time TempWeatherWind HumidityBarometerVisibility
1:00 AM
Tue, Mar 31
59 °FClear.13 mph59%30.07 "Hg10 mi
12:00 AM61 °FClear.13 mph55%30.07 "Hg10 mi
11:00 PM
Mon, Mar 30
61 °FClear.17 mph55%30.07 "Hg10 mi
10:00 PM63 °FClear.15 mph56%30.07 "Hg10 mi
9:00 PM66 °FClear.17 mph46%30.04 "Hg10 mi
8:00 PM66 °FClear.17 mph46%30.01 "Hg10 mi
7:00 PM70 °FSunny.24 mph38%29.98 "Hg10 mi
6:00 PM73 °FSunny.22 mph31%29.98 "Hg10 mi
5:00 PM75 °FSunny.20 mph34%29.98 "Hg10 mi
4:00 PM75 °FPassing clouds.22 mph31%29.98 "HgN/A
3:00 PM73 °FSunny.20 mph36%30.01 "Hg10 mi
2:00 PM72 °FSunny.17 mph41%30.04 "Hg10 mi
1:00 PM70 °FPassing clouds.15 mph46%30.07 "HgN/A
12:00 PM66 °FPassing clouds.17 mph52%30.09 "HgN/A
11:00 AM64 °FPassing clouds.17 mph64%30.12 "HgN/A
10:00 AM61 °FPassing clouds.15 mph72%30.15 "HgN/A
9:00 AM57 °FClear.15 mph88%30.12 "Hg4 mi
8:00 AM54 °FClear.8 mph94%30.12 "Hg4 mi
7:00 AM50 °FClear.10 mph100%30.09 "Hg6 mi
6:00 AM50 °FClear.8 mph94%30.09 "Hg5 mi
5:00 AM50 °FClear.8 mph94%30.07 "Hg10 mi
4:00 AM52 °FClear.8 mph94%30.09 "Hg10 mi
3:00 AM52 °FClear.8 mph94%30.09 "Hg10 mi
2:00 AM54 °FClear.10 mph88%30.12 "Hg10 mi
Weather by CustomWeather, © 2015

See weather overviewHow to use our weather pages